Regional Weather Roundup
Issued by NWS

Home | Current Version | Previous Version | Graphics & Text | Print | Product List | Glossary On
Versions: 1 2 3 4 5 6 7 8 9 10 11 12 13 14 15 16 17 18 19 20 21 22 23 24 25 26 27 28 29 30 31 32 33 34 35 36 37 38 39 40 41 42 43 44 45 46 47 48 49 50
000
ASUS43 KBIS 230110
RWRND

NORTH DAKOTA REGIONAL WEATHER ROUNDUP
NATIONAL WEATHER SERVICE BISMARCK ND
800 PM CDT FRI AUG 22 2014

NOTE: "FAIR" INDICATES FEW OR NO CLOUDS BELOW 12,000 FEET WITH NO
SIGNIFICANT WEATHER AND/OR OBSTRUCTIONS TO VISIBILITY.


NDZ001>003-009>011-017-230200-
NORTHWEST NORTH DAKOTA

CITY           SKY/WX    TMP DP  RH WIND       PRES   REMARKS
WILLISTON      CLOUDY    66  54  65 E13       30.12R
MINOT          CLOUDY    64  59  83 N7        30.11R
MINOT AFB      CLOUDY    65  60  83 NE10      30.11R
$$

NDZ018>021-031>035-040>046-230200-
SOUTHWEST NORTH DAKOTA

CITY           SKY/WX    TMP DP  RH WIND       PRES   REMARKS
BISMARCK       CLOUDY    68  65  90 NE10      30.05S
DICKINSON      CLOUDY    66  61  84 NE14      30.07R
GARRISON         N/A     65  60  84 NE8       30.10R
HETTINGER ARPT CLOUDY    70  61  73 E7        30.05S
$$

NDZ004>008-012>016-024-026-027-054-230200-
NORTHEAST NORTH DAKOTA

CITY           SKY/WX    TMP DP  RH WIND       PRES   REMARKS
GRAND FORKS    CLOUDY    69  63  81 N12       30.05R
GRND FRKS AFB  CLOUDY    69  65  88 NE8       30.07R
DEVILS LAKE    CLOUDY    66  57  72 NE13      30.09R
$$

NDZ022-023-025-028>030-036>039-047>053-230200-
SOUTHEAST NORTH DAKOTA

CITY           SKY/WX    TMP DP  RH WIND       PRES   REMARKS
FARGO          CLOUDY    70  66  87 N9        30.02S
JAMESTOWN      CLOUDY    69  64  84 NE10      30.05S
$$



USA.gov is the U.S. government's official web portal to all federal, state and local government web resources and services.